Location: Plateau_FTFHS
(35.6000°N, 81.3500°W)
Time: 02:36:06
(UTC-05:00)

Daily predictions for brighter satellites

Satellite Brightness Start Highest point End
(mag) Time Altitude Azimuth Time Altitude Azimuth Time Altitude Azimuth
Milstar 3 4.3 04:18:29 30° SSE 04:18:29 30° SSE 04:24:01 10° ESE
Cosmos 1844 Rocket 4.4 04:23:32 28° E 04:23:32 28° E 04:27:37 10° NE
Centaur D-1A AC-31 3.9 04:30:34 14° SE 04:30:34 14° SE 04:32:18 10° ESE
Lacrosse 5 3.9 04:33:46 24° ENE 04:33:46 24° ENE 04:36:29 10° E
Nadezhda 1 Rocket 4.0 04:55:51 79° ESE 04:55:51 79° ESE 05:02:02 10° S
CZ-4C R/B 4.3 04:55:29 18° N 04:59:56 33° NE 05:06:55 10° ESE
Tiangong 2 4.2 05:11:25 16° ESE 05:11:25 16° ESE 05:12:23 10° E
CENTAUR R/B 4.5 05:16:43 15° N 05:16:43 15° N 05:18:38 10° N
Feng Yun 1-1 Rocket 4.4 05:22:27 10° NNE 05:27:51 69° ESE 05:33:11 10° S
SKYMED 2 4.2 05:26:15 10° SSE 05:30:28 55° ENE 05:32:51 24° N
Cosmos 2181 Rocket 4.3 05:27:16 10° N 05:33:30 65° E 05:39:37 10° SSE
OAO 1 Rocket 4.3 05:34:41 64° WSW 05:35:25 76° S 05:40:44 10° ESE
Landsat 4 3.9 05:39:10 10° SSE 05:42:56 71° ENE 05:44:12 40° N
ATLAS CENTAUR R/B 4.1 05:43:22 10° NNE 05:45:08 12° NE 05:46:55 10° ENE
Cosmos 2278 Rocket 2.9 05:41:24 10° S 05:46:53 54° ESE 05:52:23 10° NNE
Cosmos 614 Rocket 3.8 05:43:58 19° SSW 05:47:32 61° WNW 05:52:35 10° N
Timation 1 Rocket 4.3 05:41:54 10° SSW 05:47:54 90° SE 05:53:58 10° NNE
GPS 2-04 Rocket1 3.0 05:53:22 42° SW 05:54:35 65° SSE 05:58:50 10° E
PSLV R/B 3.1 05:55:15 69° SSE 05:55:15 69° SSE 05:58:05 10° ESE
Cosmos 1400 Rocket 2.9 05:56:54 50° WNW 05:57:19 52° W 06:01:17 10° S
COSMOS 2455 4.4 06:00:51 17° NNW 06:00:51 17° NNW 06:03:28 10° N
CZ-2C R/B 2.2 05:54:54 10° NNE 05:59:31 88° ESE 06:04:13 10° SSW
IDEFIX/ARIANE 42P 2.5 05:54:24 10° N 05:59:39 66° WNW 06:04:51 10° SSW
Cosmos 1076 Rocket 3.4 05:57:34 12° N 06:01:33 81° W 06:05:49 10° S
SL-08 ROCKET BODY 4.3 06:00:20 10° SSW 06:06:05 62° W 06:11:55 10° N
Cosmos 1844 Rocket 3.3 06:05:20 30° W 06:06:37 33° WNW 06:11:37 10° N
ISS -2.1 06:13:29 20° SW 06:13:29 20° SW 06:15:42 10° S
Okean 3 Rocket 3.6 06:09:15 11° NNW 06:13:24 55° W 06:17:40 10° S
Lacrosse 5 2.3 06:13:00 27° WNW 06:15:08 42° WSW 06:19:52 10° SSE
Okean-O 3.0 06:11:31 10° N 06:15:37 38° WNW 06:19:43 10° SW
Cosmos 1766 Rocket 3.6 06:12:51 10° N 06:17:14 82° E 06:21:39 10° S
Cosmos 1844 4.2 06:12:05 10° SW 06:17:22 36° WNW 06:22:37 10° N
Meteor 1-16 Rocket 4.1 06:11:56 10° SSW 06:17:37 71° W 06:23:08 10° N
COSMO-SKYMED 1 3.0 06:14:30 10° SSW 06:18:32 38° W 06:21:27 17° NW
CZ-4 R/B 3.3 06:24:31 10° NNE 06:28:17 33° E 06:31:55 10° SSE
Cosmos 1140 Rocket 4.5 06:25:42 14° WSW 06:28:47 24° WNW 06:32:53 10° N
FAST Rocket 3.8 06:27:11 10° SSW 06:29:45 67° W 06:32:42 10° N
Cosmos 1703 4.1 06:26:09 10° N 06:30:03 53° E 06:33:53 10° SSE
Cosmos 2184 Rocket 3.9 06:24:18 10° SSW 06:30:29 70° W 06:36:47 10° N
Cosmos 1850 Rocket 4.2 06:26:34 10° SW 06:31:35 47° WNW 06:36:42 10° N
Cosmos 2082 Rocket 3.9 06:26:53 10° N 06:31:50 31° ENE 06:36:45 10° ESE
Cosmos 332 Rocket 3.8 06:30:32 10° NNW 06:35:23 64° WSW 06:40:11 10° S
Cosmos 1842 Rocket 4.2 06:31:00 10° S 06:35:24 62° E 06:39:50 10° NNE
COSMOS 2406 3.6 06:30:53 10° NW 06:36:06 41° WSW 06:41:21 10° S
DELTA 2 R/B (1) 3.6 06:33:00 17° WNW 06:37:27 82° NNE 06:43:02 10° ESE
Shenzhou-11 Module 3.3 06:36:31 19° NW 06:37:49 25° NNW 06:40:23 10° NE
MSX 4.0 06:32:59 10° N 06:38:29 49° WNW 06:43:58 10° SW
SL-14 R/B 4.4 06:40:49 12° NW 06:43:30 22° W 06:46:29 10° SW
Cosmos 1610 Rocket 4.5 06:38:44 10° S 06:45:01 78° W 06:51:24 10° N
Tiangong 2 1.3 06:43:44 13° W 06:46:26 52° NNW 06:49:35 10° ENE
Longmarch 3A Rocket 3.3 06:46:08 10° SSW 06:47:00 12° SSE 06:48:06 10° SE
CZ-4C R/B 3.2 06:41:35 10° NW 06:48:54 59° WSW 06:56:50 10° SSE
Cosmos 1484 Rocket 2.7 06:46:00 10° N 06:49:39 57° WNW 06:53:20 10° SSW
SL-27 R/B 3.2 06:46:45 10° N 06:50:21 56° ENE 06:53:55 10° SSE
Cosmos 2297 4.0 06:44:38 10° SSW 06:50:21 75° ESE 06:56:04 10° NNE
Cosmos 1726 3.7 06:47:52 10° SSE 06:51:22 39° E 06:54:52 10° NNE
USA 229 DEB 3.7 06:46:10 10° SW 06:52:50 66° NW 06:59:42 10° NNE
USA 229 3.7 06:46:15 10° SW 06:52:56 66° WNW 06:59:48 10° NNE
Cosmos 468 Rocket 4.3 06:48:08 10° NNW 06:53:20 72° ENE 06:58:32 10° SSE
Cosmos 1626 2.6 06:51:10 10° NNW 06:54:38 38° W 06:58:05 10° SSW
Nadezhda 3 Rocket 4.2 06:48:38 10° N 06:55:01 79° E 07:01:17 10° S
Cosmos 1570 Rocket 4.2 06:55:19 10° NNW 07:00:24 54° WSW 07:05:28 10° S
Cosmos 1315 Rocket 4.3 06:58:11 10° NW 07:00:55 18° W 07:03:38 10° SW
Milstar 3 3.6 06:54:26 10° WSW 07:01:04 47° S 07:07:46 10° ESE
Cosmos 1833 Rocket 3.2 07:01:24 10° NNW 07:07:02 65° ENE 07:12:37 10° SSE
Cosmos-2242 4.3 07:04:33 10° WSW 07:07:40 19° WNW 07:10:46 10° NNW
AQUARIUS 4.3 07:03:25 10° N 07:07:50 55° WNW 07:12:13 10° SSW
